This demonstration page uses our WeatherBlox Daily Observations layout. Learn more.

Left ArrowRight Arrow

Hourly Observations for June 24, 2020

Temp ( °F °C ) Dew Point ( °F °C ) Humidity (%) Winds ( mph kmh ) Pressure ( in mb ) Visibility ( mi km ) Precip ( " mm )
12:56 am 00:56 Clear 59 15 53 11.8 81 81 Calm 29.98 1015 10 16 0.00 0.00
1:56 am 01:56 Clear 57 13.9 53 11.8 87 87 Calm 29.99 1015 10 16 0.00 0.00
2:56 am 02:56 Clear 54 12.4 52 11.1 92 92 Calm 29.98 1015 10 16 0.00 0.00
3:56 am 03:56 Clear 56 13.6 53 11.6 88 88 Calm 29.98 1015 10 16 0.00 0.00
4:56 am 04:56 Clear 58 14.4 54 12.1 86 86 Calm 29.97 1015 10 16 0.00 0.00
5:56 am 05:56 Sunny 52 11.1 50 10.2 94 94 Calm 29.98 1015 10 16 0.00 0.00
6:56 am 06:56 Sunny 58 14.5 55 12.9 90 90 Calm 29.98 1015 10 16 0.00 0.00
7:56 am 07:56 Sunny 64 17.6 56 13.5 77 77 W 3 6 29.98 1015 10 16 0.00 0.00
8:56 am 08:56 Sunny 69 20.4 58 14.5 69 69 NW 3 6 29.98 1015 10 16 0.00 0.00
9:56 am 09:56 Sunny 73 22.9 57 13.9 57 57 NW 6 9 29.97 1015 10 16 0.00 0.00
10:56 am 10:56 Sunny 76 24.7 56 13.3 49 49 W 5 7 29.97 1015 10 16 0.00 0.00
11:56 am 11:56 Partly Cloudy 78 25.6 56 13.1 46 46 N 7 11 29.97 1015 10 16 0.00 0.00
12:56 pm 12:56 Mostly Cloudy 78 25.8 56 13.3 46 46 N 3 6 29.96 1014 10 16 0.00 0.00
1:56 pm 13:56 Mostly Cloudy 80 26.6 56 13.3 44 44 Calm 29.95 1014 10 16 0.00 0.00
2:56 pm 14:56 Sunny 82 27.8 57 13.7 42 42 NE 7 11 29.93 1014 9 14 0.00 0.00
3:56 pm 15:56 Sunny 83 28.2 56 13.3 40 40 NNE 8 13 29.91 1013 10 16 0.00 0.00
4:56 pm 16:56 Sunny 83 28.2 56 13.3 40 40 NE 7 11 29.91 1013 10 16 0.00 0.00
5:56 pm 17:56 Sunny 82 28 53 11.9 37 37 Calm 29.90 1013 10 16 0.00 0.00
6:56 pm 18:56 Sunny 81 27.4 55 12.6 40 40 SE 3 6 29.88 1012 10 16 0.00 0.00
7:56 pm 19:56 Sunny 79 25.9 58 14.3 49 49 ESE 6 9 29.88 1012 10 16 0.00 0.00
8:56 pm 20:56 Sunny 72 22.2 60 15.8 67 67 E 3 6 29.88 1012 10 16 0.00 0.00
9:56 pm 21:56 Clear 66 18.8 59 14.9 78 78 Calm 29.90 1012 10 16 0.00 0.00
10:56 pm 22:56 Clear 62 16.9 58 14.4 85 85 E 3 6 29.93 1013 10 16 0.00 0.00
11:56 pm 23:56 Clear 61 15.9 57 13.9 88 88 Calm 29.93 1013 10 16 0.00 0.00

Powered by AerisWeather